15min,AgWx,evansfrm,411,09FEB2018:00:00:00,49.2,12.76,51.3,51.0,50.3,51.6,48.6,43,46,41,0.520,28.6,29.3,28.0,8.26,4.5,224,52,11.5,0.00032,0.00043,39.9,38.3,30,0,0,52.7,15.54,0.00,0.00
15min,AgWx,evansfrm,411,09FEB2018:00:15:00,49.1,12.75,50.9,50.7,50.8,51.6,50.4,42,43,41,0.532,28.6,29.1,28.0,4.823,5.6,198,11,8.4,0.00039,0.00052,40.0,38.3,30,0,0,53.0,15.54,0.00,0.00
15min,AgWx,evansfrm,411,09FEB2018:00:30:00,49.1,12.69,51.4,51.2,51.1,51.8,50.5,41,43,40,0.528,28.4,28.9,28.0,6.73,5.8,204,17,8.8,0.00040,0.00053,39.9,38.3,30,0,0,53.1,15.54,0.00,0.00
15min,AgWx,evansfrm,411,09FEB2018:00:45:00,49.3,12.74,51.5,51.3,51.6,52.4,51.0,40,42,38,0.524,28.2,28.7,27.6,8.51,6.8,204,19,9.7,0.00047,0.00060,39.9,38.3,30,0,0,53.5,15.54,0.00,0.00
15min,AgWx,evansfrm,411,09FEB2018:01:00:00,49.4,12.73,51.0,50.8,50.8,51.3,50.2,42,43,40,0.526,28.4,28.9,28.0,7.98,7.5,194,13,12.0,0.00048,0.00060,39.8,38.5,30,0,0,53.1,15.54,0.00,0.00
15min,AgWx,evansfrm,411,09FEB2018:01:15:00,49.5,12.73,50.5,50.3,51.0,51.6,50.2,41,43,40,0.535,28.3,28.9,27.9,6.379,7.6,192,8.4,11.1,0.00048,0.00061,39.7,38.5,30,0,0,53.2,15.54,0.00,0.00
15min,AgWx,evansfrm,411,09FEB2018:01:30:00,49.4,12.72,51.6,51.4,50.9,51.9,50.2,41,43,39,0.522,28.3,28.8,27.9,10.3,8.5,186,8.4,13.4,0.00051,0.00064,39.8,38.3,30,0,0,53.1,15.54,0.00,0.00
15min,AgWx,evansfrm,411,09FEB2018:01:45:00,49.6,12.71,50.8,50.6,51.3,51.9,50.6,41,42,39,0.533,28.3,28.7,27.6,4.954,7.4,193,15,11.0,0.00049,0.00062,39.8,38.5,30,0,0,53.7,15.54,0.00,0.00
15min,AgWx,evansfrm,411,09FEB2018:02:00:00,49.6,12.71,51.2,51.1,51.1,51.8,50.2,41,43,39,0.517,28.1,28.8,27.4,6.883,6.9,188,16,9.1,0.00046,0.00059,39.8,38.3,30,0,0,53.4,15.54,0.00,0.00
15min,AgWx,evansfrm,411,09FEB2018:02:15:00,49.6,12.7,51.4,51.2,51.3,51.9,50.5,40,41,38,0.513,27.7,28.0,27.2,5.13,7.2,187,12,11.0,0.00048,0.00062,39.8,38.1,30,0,0,53.4,15.54,0.00,0.00
15min,AgWx,evansfrm,411,09FEB2018:02:30:00,49.8,12.69,51.6,51.5,51.9,52.6,51.1,39,40,37,0.511,27.4,28.0,27.0,8.79,8.0,188,11,11.7,0.00053,0.00067,39.8,38.5,30,0,0,54.0,15.54,0.00,0.00
15min,AgWx,evansfrm,411,09FEB2018:02:45:00,50.0,12.68,52.4,52.5,52.0,52.6,51.5,38,39,37,0.504,27.2,27.8,26.8,7.87,10.2,189,8.6,13.1,0.00062,0.00075,39.7,38.3,30,0,0,54.1,15.54,0.00,0.00
15min,AgWx,evansfrm,411,09FEB2018:03:00:00,50.1,12.68,51.0,50.7,51.6,52.3,50.7,39,41,38,0.517,27.5,28.3,26.8,9.91,7.9,185,13,11.3,0.00052,0.00066,39.7,38.3,30,0,0,54.0,15.54,0.00,0.00
15min,AgWx,evansfrm,411,09FEB2018:03:15:00,50.0,12.66,51.4,51.1,50.8,51.8,50.4,41,42,38,0.505,27.7,28.1,27.0,5.963,7.7,177,8.4,11.9,0.00049,0.00062,39.7,38.3,30,0,0,53.1,15.54,0.00,0.00
15min,AgWx,evansfrm,411,09FEB2018:03:30:00,49.9,12.66,51.0,50.8,50.8,51.6,50.3,40,42,39,0.507,27.6,28.1,27.0,8.26,7.3,177,9.4,11.1,0.00048,0.00061,39.6,38.3,30,0,0,53.1,15.54,0.00,0.00
15min,AgWx,evansfrm,411,09FEB2018:03:45:00,49.9,12.66,51.9,51.6,51.7,52.4,50.7,38,41,37,0.499,27.1,27.8,26.5,6.16,9.4,182,9.2,13.6,0.00058,0.00072,39.7,38.3,30,0,0,53.8,15.54,0.00,0.00
15min,AgWx,evansfrm,411,09FEB2018:04:00:00,49.9,12.65,51.4,51.1,51.2,52.1,50.4,39,41,37,0.501,27.2,27.7,26.5,9.34,7.1,190,13,13.8,0.00048,0.00062,39.7,38.3,30,0,0,53.5,15.54,0.00,0.00
15min,AgWx,evansfrm,411,09FEB2018:04:15:00,49.9,12.64,51.0,50.8,51.0,51.5,50.5,40,41,39,0.512,27.3,27.8,26.9,6.314,7.3,187,9.7,10.9,0.00049,0.00062,39.6,38.3,30,0,0,53.4,15.54,0.00,0.00
15min,AgWx,evansfrm,411,09FEB2018:04:30:00,49.8,12.64,50.4,50.2,50.6,51.2,50.2,40,41,39,0.500,27.4,27.7,26.8,7.103,6.6,183,13,10.0,0.00045,0.00058,39.6,38.3,30,0,0,53.1,15.54,0.00,0.00
15min,AgWx,evansfrm,411,09FEB2018:04:45:00,49.7,12.63,51.2,50.9,50.9,51.6,50.2,39,40,38,0.498,27.1,27.5,26.5,6.577,8.2,182,9.9,12.2,0.00052,0.00065,39.6,38.3,30,0,0,53.2,15.54,0.00,0.00
15min,AgWx,evansfrm,411,09FEB2018:05:00:00,49.6,12.63,51.0,50.9,50.3,51.0,49.4,41,43,39,0.499,27.3,27.9,26.6,5.919,6.4,179,8.9,10.7,0.00043,0.00056,39.7,38.5,30,0,0,52.9,15.54,0.00,0.00
15min,AgWx,evansfrm,411,09FEB2018:05:15:00,49.6,12.63,50.7,50.4,50.7,51.1,50.4,39,40,38,0.498,27.0,27.3,26.5,7.673,6.3,186,12,9.6,0.00044,0.00057,39.6,38.5,30,0,0,53.1,15.54,0.00,0.00
15min,AgWx,evansfrm,411,09FEB2018:05:30:00,49.4,12.55,51.0,51.1,50.6,51.3,50.1,40,41,38,0.498,27.0,27.5,26.5,3.464,5.8,195,12,8.5,0.00041,0.00055,39.6,38.3,30,0,0,52.9,15.54,0.00,0.00
15min,AgWx,evansfrm,411,09FEB2018:05:45:00,49.3,12.61,50.3,50.2,50.5,51.5,49.6,40,42,37,0.504,27.0,27.5,25.9,5.831,5.0,188,21,7.3,0.00037,0.00050,39.7,38.5,30,0,0,53.0,15.54,0.00,0.00
15min,AgWx,evansfrm,411,09FEB2018:06:00:00,49.1,12.61,51.1,51.0,50.1,51.0,49.5,41,43,39,0.497,27.4,27.9,26.8,8.44,6.8,198,8.4,10.7,0.00044,0.00057,39.7,38.3,30,0,0,52.4,15.54,0.00,0.00
15min,AgWx,evansfrm,411,09FEB2018:06:15:00,49.0,12.61,51.4,51.3,50.1,51.3,49.6,41,42,38,0.489,27.3,27.7,26.4,6.752,5.7,202,11,10.8,0.00039,0.00052,39.5,38.3,30,0,0,52.3,15.54,0.00,0.00
15min,AgWx,evansfrm,411,09FEB2018:06:30:00,49.0,12.61,50.4,50.1,51.3,52.5,50.1,38,41,36,0.502,26.7,27.2,26.0,4.735,7.2,204,14,13.1,0.00050,0.00064,39.5,38.3,30,0,0,52.8,15.54,0.00,0.00
15min,AgWx,evansfrm,411,09FEB2018:06:45:00,48.7,12.61,49.3,49.2,49.8,50.4,48.9,41,43,39,0.494,26.9,27.3,26.4,9.23,7.7,193,8.2,10.4,0.00047,0.00060,39.6,38.5,30,0,0,51.0,15.54,0.00,0.00
15min,AgWx,evansfrm,411,09FEB2018:07:00:00,48.3,12.6,49.4,49.3,49.4,50.2,48.7,41,43,40,0.500,26.9,27.3,26.3,8.66,7.9,197,11,11.9,0.00047,0.00059,39.6,38.5,30,0,0,50.4,15.54,0.00,0.00
15min,AgWx,evansfrm,411,09FEB2018:07:15:00,47.9,12.59,50.5,50.5,49.2,50.6,48.1,41,44,38,0.488,26.8,27.3,25.9,8.59,8.6,194,9.0,13.3,0.00049,0.00061,39.5,38.3,30,0,0,49.9,15.54,0.00,0.00
15min,AgWx,evansfrm,411,09FEB2018:07:30:00,47.7,12.59,49.7,49.7,49.7,50.6,49.3,40,41,39,0.489,26.4,26.8,26.0,9.1,8.7,194,11,12.6,0.00052,0.00064,39.5,38.5,30,1,0,50.7,15.54,0.00,0.00
15min,AgWx,evansfrm,411,09FEB2018:07:45:00,47.6,12.6,50.2,49.9,49.5,50.3,48.9,41,42,39,0.487,26.7,27.2,26.2,11.77,8.1,194,12,12.6,0.00050,0.00062,39.5,37.9,30,10,0,50.8,15.54,0.00,0.00
15min,AgWx,evansfrm,411,09FEB2018:08:00:00,47.5,12.61,49.4,49.3,49.2,50.2,47.9,41,44,39,0.493,26.7,27.2,26.2,12.74,7.5,193,12,12.7,0.00050,0.00114,39.5,38.1,30,27,0,50.9,15.54,0.00,0.00
15min,AgWx,evansfrm,411,09FEB2018:08:15:00,47.6,12.63,50.5,50.6,49.7,50.6,49.0,41,42,39,0.494,26.8,27.4,26.5,9.16,8.9,194,10,13.0,0.00081,0.00157,39.4,38.3,30,52,0,51.9,15.54,0.00,0.00
15min,AgWx,evansfrm,411,09FEB2018:08:30:00,48.0,12.7,51.4,51.3,50.5,51.3,50.0,40,41,38,0.497,27.0,27.5,26.1,8.48,9.1,198,12,14.6,0.00102,0.00183,39.4,38.5,30,87,0,53.6,15.54,0.00,0.00
15min,AgWx,evansfrm,411,09FEB2018:08:45:00,49.3,12.84,51.9,51.7,51.4,51.8,51.0,39,41,38,0.505,27.3,28.4,26.6,7.826,7.6,197,11,12.3,0.00113,0.00187,39.4,38.3,30,149,0,55.8,15.54,0.00,0.00
15min,AgWx,evansfrm,411,09FEB2018:09:00:00,50.8,12.95,52.1,52.0,52.0,52.1,51.8,38,39,37,0.501,27.4,28.0,26.7,8.68,9.3,196,14,14.1,0.00149,0.00238,39.4,38.5,30,192,0,57.4,15.54,0.00,0.00
15min,AgWx,evansfrm,411,09FEB2018:09:15:00,52.2,13.09,52.7,52.6,52.3,52.7,52.0,38,39,37,0.522,27.4,28.1,26.8,11.93,7.4,193,14,12.3,0.00149,0.00227,39.4,38.3,30,215,0,58.2,15.54,0.00,0.00
15min,AgWx,evansfrm,411,09FEB2018:09:30:00,54.1,13.23,53.3,53.3,53.0,53.6,52.6,37,39,36,0.504,27.5,28.5,26.1,8.81,8.4,203,17,17.9,0.00196,0.00285,39.4,38.1,29,297,0,59.2,15.54,0.00,0.00
15min,AgWx,evansfrm,411,09FEB2018:09:45:00,56.2,13.23,54.0,53.9,53.5,54.0,53.0,37,38,35,0.534,27.7,28.8,26.8,8.53,7.7,218,16,12.2,0.00221,0.00308,39.3,38.3,30,355,0,60.6,15.54,0.00,0.00
15min,AgWx,evansfrm,411,09FEB2018:10:00:00,56.9,13.21,53.4,53.2,53.2,53.9,52.8,37,39,35,0.514,27.6,28.7,26.4,12.14,9.2,209,16,14.8,0.00213,0.00309,39.4,38.3,30,298,0,60.9,15.54,0.00,0.00
15min,AgWx,evansfrm,411,09FEB2018:10:15:00,57.7,13.3,53.8,53.6,53.5,54.2,53.1,37,38,36,0.519,28.1,29.2,27.1,10.76,9.1,209,13,12.8,0.00242,0.00339,39.4,38.3,30,381,0,61.4,15.54,0.00,0.00
15min,AgWx,evansfrm,411,09FEB2018:10:30:00,58.7,13.25,53.8,53.6,53.6,54.0,53.2,37,39,36,0.517,27.8,29.3,27.1,10.17,9.4,214,15,14.3,0.00259,0.00360,39.6,38.3,30,411,0,61.7,15.54,0.00,0.00
15min,AgWx,evansfrm,411,09FEB2018:10:45:00,59.0,13.27,53.7,53.3,53.4,53.7,52.9,38,39,37,0.539,28.2,29.1,27.5,6.182,8.6,228,25,17.2,0.00243,0.00337,39.6,38.1,30,367,0,61.5,15.54,0.00,0.00
15min,AgWx,evansfrm,411,09FEB2018:11:00:00,59.3,13.26,54.5,53.4,53.5,54.2,52.9,37,39,35,0.502,27.8,28.8,26.6,5.371,6.9,251,30,13.2,0.00239,0.00321,39.8,38.3,30,372,0,61.7,15.54,0.00,0.00
15min,AgWx,evansfrm,411,09FEB2018:11:15:00,59.6,13.23,55.4,54.5,53.6,54.5,53.0,37,38,35,0.550,27.7,29.4,26.4,4.735,6.6,264,31,14.9,0.00249,0.00330,40.0,38.3,30,397,0,62.2,15.54,0.00,0.00
15min,AgWx,evansfrm,411,09FEB2018:11:30:00,60.1,13.33,54.0,53.3,53.7,54.7,53.1,36,38,35,0.505,27.5,29.4,26.6,1.732,6.3,231,21,10.8,0.00259,0.00339,40.2,38.1,30,422,0,64.1,15.54,0.00,0.00
15min,AgWx,evansfrm,411,09FEB2018:11:45:00,60.9,13.42,55.1,54.5,54.0,55.1,53.1,36,38,34,0.537,27.4,29.4,26.3,4.626,5.8,268,35,9.8,0.00272,0.00349,40.4,38.3,30,458,0,65.5,15.54,0.00,0.00
15min,AgWx,evansfrm,411,09FEB2018:12:00:00,62.0,13.19,54.8,53.7,54.3,55.5,53.5,35,37,32,0.493,27.0,29.1,25.6,8.02,5.1,310,30,11.4,0.00292,0.00365,40.6,38.3,29,507,0,66.7,15.54,0.00,0.00
15min,AgWx,evansfrm,411,09FEB2018:12:15:00,61.9,13.38,54.7,54.3,53.6,54.3,53.0,35,37,33,0.518,26.6,28.1,25.3,2.017,6.1,285,36,14.7,0.00248,0.00327,40.8,38.5,30,379,0,62.8,15.54,0.00,0.00
15min,AgWx,evansfrm,411,09FEB2018:12:30:00,62.0,13.35,55.1,54.1,54.4,55.2,53.8,34,36,32,0.490,26.6,28.2,25.0,11.51,7.6,295,26,14.5,0.00307,0.00402,40.9,38.3,30,500,0,64.5,15.54,0.00,0.00
15min,AgWx,evansfrm,411,09FEB2018:12:45:00,61.6,13.44,54.6,54.3,53.5,54.4,52.7,35,37,33,0.519,26.6,28.2,25.1,9.89,7.7,284,22,12.9,0.00267,0.00359,41.3,38.5,30,400,0,62.4,15.54,0.00,0.00
15min,AgWx,evansfrm,411,09FEB2018:13:00:00,61.4,13.43,54.6,54.2,54.0,54.7,53.3,34,37,33,0.473,26.4,28.5,25.5,9.21,6.8,270,20,11.5,0.00294,0.00381,41.5,38.5,30,482,0,65.2,15.54,0.00,0.00
15min,AgWx,evansfrm,411,09FEB2018:13:15:00,61.2,13.23,53.8,53.5,54.1,55.0,53.2,34,36,32,0.473,26.3,28.0,24.7,6.314,6.8,257,22,11.6,0.00243,0.00329,41.7,38.7,30,334,0,64.3,15.54,0.00,0.00
15min,AgWx,evansfrm,411,09FEB2018:13:30:00,60.8,13.18,53.8,53.6,53.6,54.1,53.2,34,35,32,0.474,25.8,27.1,24.6,5.283,5.2,264,33,9.7,0.00224,0.00294,42.1,39.0,29,325,0,65.5,15.54,0.00,0.00
15min,AgWx,evansfrm,411,09FEB2018:13:45:00,60.4,13.15,54.6,54.2,53.9,54.3,53.2,32,34,30,0.448,24.8,26.4,23.1,1.798,4.7,243,40,12.5,0.00204,0.00270,42.2,38.8,29,280,0,65.2,15.54,0.00,0.00
15min,AgWx,evansfrm,411,09FEB2018:14:00:00,59.7,13.13,53.9,53.6,53.5,54.1,53.1,32,34,31,0.455,24.3,25.8,23.2,9.19,7.2,274,43,14.1,0.00204,0.00291,42.5,39.2,29,224,0,61.9,15.54,0.00,0.00
15min,AgWx,evansfrm,411,09FEB2018:14:15:00,59.0,13.16,54.4,54.2,53.7,54.2,53.3,31,34,29,0.435,23.4,25.8,21.7,9.71,7.6,253,32,18.2,0.00224,0.00317,42.7,39.4,29,267,0,62.4,15.54,0.00,0.00
15min,AgWx,evansfrm,411,09FEB2018:14:30:00,58.7,13.24,54.6,54.4,54.3,54.6,53.9,30,32,29,0.434,23.8,25.5,22.7,14.23,8.6,264,21,14.2,0.00245,0.00349,43.0,39.4,29,306,0,62.8,15.54,0.00,0.00
15min,AgWx,evansfrm,411,09FEB2018:14:45:00,58.7,13.18,54.8,54.4,54.4,55.1,53.7,30,32,29,0.442,23.7,25.1,22.8,5.261,8.0,304,23,14.5,0.00246,0.00347,43.2,39.2,29,322,0,63.0,15.54,0.00,0.00
15min,AgWx,evansfrm,411,09FEB2018:15:00:00,58.5,13.15,53.7,53.2,53.7,54.6,53.2,31,33,29,0.442,23.8,25.0,22.0,9.34,7.4,315,23,16.4,0.00208,0.00298,43.3,39.7,29,248,0,61.8,15.54,0.00,0.00
15min,AgWx,evansfrm,411,09FEB2018:15:15:00,58.0,13.13,53.1,52.8,53.1,53.6,52.6,33,35,32,0.468,24.9,26.2,23.8,4.626,6.6,326,22,11.1,0.00184,0.00265,43.5,39.4,30,216,0,60.4,15.54,0.00,0.00
15min,AgWx,evansfrm,411,09FEB2018:15:30:00,57.5,13.12,52.7,52.5,52.8,53.1,52.4,34,35,33,0.463,25.2,25.9,24.5,5.174,6.1,339,18,11.8,0.00169,0.00243,43.7,39.7,29,203,0,59.4,15.54,0.00,0.00
15min,AgWx,evansfrm,411,09FEB2018:15:45:00,56.8,13.08,52.4,52.2,52.3,52.5,52.1,33,34,32,0.449,24.2,25.0,23.3,4.954,6.2,357,14,9.2,0.00150,0.00223,43.7,39.6,29,146,0,58.2,15.54,0.00,0.00
15min,AgWx,evansfrm,411,09FEB2018:16:00:00,56.2,13.05,52.0,51.9,52.0,52.3,51.8,33,34,32,0.439,23.8,24.4,23.0,6.292,6.2,360,15,9.3,0.00139,0.00211,43.9,39.6,29,119,0,57.3,15.55,0.00,0.00
15min,AgWx,evansfrm,411,09FEB2018:16:15:00,55.4,12.96,51.7,51.5,51.8,51.9,51.5,33,35,32,0.431,23.9,24.8,23.1,4.012,5.1,353,15,8.9,0.00116,0.00177,44.0,39.9,29,94,0,56.4,15.55,0.00,0.00
15min,AgWx,evansfrm,411,09FEB2018:16:30:00,54.7,13,51.1,51.1,51.3,51.6,50.9,34,35,32,0.430,23.7,24.5,22.6,6.905,4.6,355,18,7.4,0.00099,0.00154,44.0,39.7,30,63,0,55.1,15.54,0.00,0.00
15min,AgWx,evansfrm,411,09FEB2018:16:45:00,53.7,12.98,50.4,50.3,50.8,51.1,50.3,34,36,33,0.437,23.5,24.2,22.8,6.16,5.5,4.9,18,8.7,0.00100,0.00162,44.2,40.1,29,38,0,53.9,15.55,0.00,0.00
15min,AgWx,evansfrm,411,09FEB2018:17:00:00,52.8,12.95,49.4,49.3,49.7,50.3,49.2,37,39,35,0.442,24.6,25.3,23.7,4.932,4.9,14,11,8.1,0.00080,0.00133,44.2,40.1,29,23,0,52.6,15.55,0.00,0.00
15min,AgWx,evansfrm,411,09FEB2018:17:15:00,52.0,12.94,49.0,48.8,49.1,49.4,48.7,36,37,34,0.407,23.0,24.3,21.8,3.179,5.5,16,11,9.1,0.00085,0.00143,44.2,40.5,29,17,0,51.7,15.55,0.00,0.00
15min,AgWx,evansfrm,411,09FEB2018:17:30:00,51.1,12.93,48.6,48.3,48.5,48.9,48.2,35,37,33,0.379,22.2,23.2,20.4,5.678,4.3,41,19,8.7,0.00065,0.00111,44.2,40.6,29,12,0,51.0,15.55,0.00,0.00
15min,AgWx,evansfrm,411,09FEB2018:17:45:00,50.3,12.88,48.3,48.1,48.1,48.5,47.9,32,34,29,0.337,19.4,21.0,17.6,8.81,6.6,50,13,10.8,0.00091,0.00160,44.1,40.3,29,5,0,50.4,15.55,0.00,0.00
15min,AgWx,evansfrm,411,09FEB2018:18:00:00,49.6,12.91,48.0,47.8,47.8,48.0,47.6,29,30,27,0.309,16.9,18.2,15.3,9.58,6.6,54,12,11.0,0.00053,0.00067,44.1,40.6,29,1,0,49.8,15.55,0.00,0.00
15min,AgWx,evansfrm,411,09FEB2018:18:15:00,49.1,12.9,47.6,47.3,47.6,48.0,47.3,28,29,27,0.321,15.8,17.1,15.2,4.823,6.9,54,9.0,9.8,0.00055,0.00070,44.1,39.9,29,0,0,49.7,15.55,0.00,0.00
15min,AgWx,evansfrm,411,09FEB2018:18:30:00,48.6,12.9,47.4,47.3,47.2,47.6,47.0,29,30,27,0.317,16.2,17.2,15.1,3.793,5.4,60,11,9.1,0.00047,0.00061,43.9,40.8,29,0,0,49.4,15.55,0.00,0.00
15min,AgWx,evansfrm,411,09FEB2018:18:45:00,48.1,12.89,47.0,46.9,47.5,48.2,46.9,28,30,26,0.314,16.0,17.3,14.2,0,2.7,28,27,6.9,0.00028,0.00041,43.9,40.6,29,0,0,49.6,15.55,0.00,0.00
15min,AgWx,evansfrm,411,09FEB2018:19:00:00,47.5,12.88,47.2,47.0,47.0,47.5,46.7,29,30,27,0.309,16.0,17.0,15.0,2.455,2.3,30,51,6.8,0.00023,0.00034,43.8,40.3,29,0,0,49.2,15.55,0.00,0.00
15min,AgWx,evansfrm,411,09FEB2018:19:15:00,47.1,12.88,46.6,46.4,47.2,47.6,46.4,28,31,27,0.330,16.0,17.5,14.9,3.661,2.8,56,46,6.3,0.00028,0.00041,43.7,40.3,29,0,0,49.2,15.55,0.00,0.00
15min,AgWx,evansfrm,411,09FEB2018:19:30:00,46.8,12.87,46.2,46.2,47.0,48.3,45.9,30,34,26,0.341,17.0,19.0,15.2,2.17,2.8,322,60,6.4,0.00028,0.00040,43.5,40.8,29,0,0,49.1,15.55,0.00,0.00
15min,AgWx,evansfrm,411,09FEB2018:19:45:00,46.6,12.87,46.3,46.5,46.9,48.5,46.0,29,33,23,0.327,16.2,19.1,12.2,3.508,3.5,25,60,11.0,0.00033,0.00047,43.4,40.8,29,0,0,49.0,15.55,0.00,0.00
15min,AgWx,evansfrm,411,09FEB2018:20:00:00,46.2,12.87,46.1,46.0,46.5,46.8,46.0,30,32,29,0.325,16.8,17.9,16.1,3.924,2.4,27,68,5.0,0.00024,0.00035,43.3,40.5,29,0,0,48.5,15.55,0.00,0.00
15min,AgWx,evansfrm,411,09FEB2018:20:15:00,46.0,12.86,46.8,46.5,46.5,46.9,45.6,29,32,28,0.305,16.2,17.8,14.8,3.683,4.8,56,16,8.2,0.00042,0.00056,43.3,40.6,29,0,0,48.7,15.55,0.00,0.00
15min,AgWx,evansfrm,411,09FEB2018:20:30:00,45.6,12.85,44.2,44.2,45.6,46.8,44.0,32,38,28,0.343,17.0,20.2,15.0,0,0.7,328,39,3.9,0.00004,0.00008,43.1,41.0,29,0,0,48.1,15.55,0.00,0.00
15min,AgWx,evansfrm,411,09FEB2018:20:45:00,44.9,12.85,42.6,42.6,43.1,44.3,42.5,39,41,34,0.376,19.8,21.3,17.8,2.433,1.2,162,27,2.4,0.00007,0.00012,42.9,41.0,29,0,0,46.3,15.55,0.00,0.00
15min,AgWx,evansfrm,411,09FEB2018:21:00:00,44.1,12.84,42.4,42.7,42.4,43.0,41.6,40,43,38,0.371,20.1,20.8,19.3,4.45,3.5,130,26,7.2,0.00025,0.00034,42.8,40.5,29,0,0,45.3,15.55,0.00,0.00
15min,AgWx,evansfrm,411,09FEB2018:21:15:00,43.5,12.84,40.6,40.3,41.5,42.8,40.1,45,52,39,0.428,21.8,24.1,19.4,3.266,2.2,279,48,4.6,0.00014,0.00021,42.8,40.8,29,0,0,44.7,15.55,0.00,0.00
15min,AgWx,evansfrm,411,09FEB2018:21:30:00,42.9,12.84,42.0,42.3,41.6,42.9,40.3,46,51,42,0.395,22.5,23.8,21.1,2.981,3.1,345,37,6.8,0.00019,0.00027,42.6,40.8,29,0,0,44.3,15.55,0.00,0.00
15min,AgWx,evansfrm,411,09FEB2018:21:45:00,42.8,12.83,44.2,44.2,43.7,44.6,42.3,40,44,37,0.380,20.7,22.0,19.5,5.722,4.9,327,28,12.0,0.00033,0.00043,42.5,40.6,29,0,0,45.7,15.55,0.00,0.00
15min,AgWx,evansfrm,411,09FEB2018:22:00:00,42.8,12.82,43.2,43.2,43.9,44.8,43.2,40,42,37,0.399,21.0,21.7,20.0,4.209,4.8,333,18,8.9,0.00033,0.00043,42.4,40.5,29,0,0,45.8,15.55,0.00,0.00
15min,AgWx,evansfrm,411,09FEB2018:22:15:00,42.6,12.83,41.4,41.3,42.2,43.2,41.2,45,48,42,0.418,22.4,23.1,21.7,4.406,4.4,343,23,6.6,0.00026,0.00035,42.3,40.8,29,0,0,44.3,15.55,0.00,0.00
15min,AgWx,evansfrm,411,09FEB2018:22:30:00,42.2,12.82,41.2,41.1,41.3,41.6,41.0,47,48,45,0.404,22.3,22.9,21.5,2.718,3.7,335,19,6.7,0.00022,0.00030,42.2,40.5,29,0,0,43.5,15.55,0.00,0.00
15min,AgWx,evansfrm,411,09FEB2018:22:45:00,41.7,12.81,41.1,41.0,40.8,41.1,40.5,46,49,43,0.375,21.7,22.8,20.0,1.008,2.8,341,24,5.7,0.00017,0.00025,42.0,40.1,29,0,0,43.1,15.55,0.00,0.00
15min,AgWx,evansfrm,411,09FEB2018:23:00:00,41.4,12.81,42.0,41.8,41.6,42.1,40.9,40,43,38,0.356,18.9,20.2,18.1,2.302,3.9,349,22,7.2,0.00026,0.00036,42.0,40.6,29,0,0,43.8,15.55,0.00,0.00
15min,AgWx,evansfrm,411,09FEB2018:23:15:00,41.4,12.81,41.9,41.8,41.7,41.9,41.3,39,40,38,0.345,18.6,19.0,18.1,10.41,6.5,2.6,13,10.8,0.00037,0.00047,41.8,40.6,29,0,0,44.0,15.55,0.00,0.00
15min,AgWx,evansfrm,411,09FEB2018:23:30:00,41.4,12.76,41.7,41.4,41.6,42.0,41.3,39,40,38,0.346,18.4,18.7,17.8,3.486,7.9,7.7,11,12.1,0.00042,0.00051,41.7,40.5,29,0,0,44.0,15.55,0.00,0.00
15min,AgWx,evansfrm,411,09FEB2018:23:45:00,41.3,12.8,41.2,40.9,41.1,41.5,40.8,40,41,39,0.354,18.8,19.2,18.4,4.604,5.1,358,13,8.3,0.00031,0.00040,41.6,40.6,29,0,0,43.5,15.55,0.00,0.00
15min,AgWx,drainfrm,410,09FEB2018:00:00:00,43.8,12.54,44.7,44.8,44.7,45.7,44.0,64,69,59,0.609,33.1,34.8,31.7,6.204,5.0,113,66,8.4,0.00016,0.00021,38.9,37.4,64,0,100,46.9,14.64,0.00,0.00
15min,AgWx,drainfrm,410,09FEB2018:00:15:00,43.7,12.55,43.6,44.2,44.8,45.9,43.6,63,69,56,0.646,32.9,34.2,30.9,2.718,3.1,37,70,7.9,0.00008,0.00013,38.9,37.6,64,0,100,46.8,14.64,0.00,0.00
15min,AgWx,drainfrm,410,09FEB2018:00:30:00,43.7,12.54,45.5,46.2,45.6,47.6,44.1,59,66,51,0.602,31.8,33.5,29.4,2.981,5.7,85,53,13.2,0.00021,0.00028,38.8,38.1,64,0,100,47.9,14.64,0.00,0.00
15min,AgWx,drainfrm,410,09FEB2018:00:45:00,44.0,12.54,47.2,47.7,47.6,49.6,45.5,52,59,46,0.594,30.8,32.4,29.2,3.486,3.7,192,86,8.2,0.00018,0.00026,38.9,38.5,64,0,100,49.1,14.64,0.00,0.00
15min,AgWx,drainfrm,410,09FEB2018:01:00:00,44.2,12.54,46.0,46.9,46.8,47.7,45.7,56,61,51,0.617,31.8,33.1,30.3,8.64,4.0,64,61,10.4,0.00017,0.00024,39.0,38.5,64,0,100,48.5,14.64,0.00,0.00
15min,AgWx,drainfrm,410,09FEB2018:01:15:00,44.4,12.54,44.7,45.4,46.3,47.1,45.1,57,62,53,0.620,32.0,33.3,30.7,6.599,4.6,158,76,9.8,0.00019,0.00026,39.0,38.5,64,0,100,48.1,14.64,0.00,0.00
15min,AgWx,drainfrm,410,09FEB2018:01:30:00,44.3,12.54,47.0,47.3,45.5,47.3,44.3,60,65,52,0.571,32.3,33.5,30.3,8.7,5.4,121,63,10.1,0.00019,0.00026,39.0,37.4,64,0,100,47.3,14.64,0.00,0.00
15min,AgWx,drainfrm,410,09FEB2018:01:45:00,44.8,12.53,48.8,49.9,49.1,50.4,47.6,48,53,45,0.552,30.3,31.4,29.4,1.03,4.1,133,68,12.1,0.00024,0.00033,39.0,38.7,64,0,100,50.5,14.64,0.00,0.00
15min,AgWx,drainfrm,410,09FEB2018:02:00:00,45.0,12.53,47.5,48.2,48.3,50.2,46.8,51,56,45,0.610,31.1,32.6,29.4,8.44,3.4,198,87,8.4,0.00016,0.00024,38.9,37.4,64,0,100,49.9,14.64,0.00,0.00
15min,AgWx,drainfrm,410,09FEB2018:02:15:00,45.3,12.53,47.4,48.0,48.2,48.7,47.9,54,56,52,0.609,32.2,32.9,31.4,4.45,6.4,176,7.8,9.8,0.00029,0.00038,39.0,37.4,64,0,100,49.6,14.64,0.00,0.00
15min,AgWx,drainfrm,410,09FEB2018:02:30:00,45.4,12.53,47.2,47.9,47.5,48.0,47.0,55,57,52,0.596,31.9,32.8,31.0,4.428,3.9,172,11,5.7,0.00017,0.00025,38.9,37.6,64,0,100,49.2,14.64,0.00,0.00
15min,AgWx,drainfrm,410,09FEB2018:02:45:00,45.6,12.53,47.0,47.5,47.9,48.4,47.5,52,56,50,0.623,31.4,32.7,30.5,7.256,5.3,164,16,7.3,0.00026,0.00034,39.0,38.3,64,0,100,49.5,14.64,0.00,0.00
15min,AgWx,drainfrm,410,09FEB2018:03:00:00,45.9,12.53,51.1,51.5,49.2,51.5,47.5,48,56,39,0.512,30.5,32.7,27.7,7.432,6.3,160,29,14.1,0.00034,0.00044,39.0,37.6,64,0,100,50.6,14.64,0.00,0.00
15min,AgWx,drainfrm,410,09FEB2018:03:15:00,46.4,12.52,48.3,49.0,49.8,52.7,48.5,46,51,37,0.565,29.8,31.3,27.3,7.87,6.1,153,18,11.2,0.00035,0.00047,38.9,37.6,64,0,100,51.1,14.64,0.00,0.00
15min,AgWx,drainfrm,410,09FEB2018:03:30:00,46.4,12.52,48.2,48.8,48.1,49.1,47.2,52,55,47,0.552,31.1,32.4,29.5,7.695,6.5,169,10,9.6,0.00031,0.00040,39.1,38.5,64,0,100,49.7,14.64,0.00,0.00
15min,AgWx,drainfrm,410,09FEB2018:03:45:00,46.7,12.52,48.7,49.2,49.5,50.4,48.6,46,50,44,0.568,29.8,30.7,29.0,6.445,8.6,153,10,14.7,0.00044,0.00054,39.0,37.0,64,0,100,50.8,14.64,0.00,0.00
15min,AgWx,drainfrm,410,09FEB2018:04:00:00,46.9,12.51,49.0,49.4,49.0,49.8,48.1,48,52,45,0.545,30.3,31.6,28.9,8.7,7.5,159,13,11.7,0.00038,0.00048,39.1,37.4,64,0,100,50.6,14.64,0.00,0.00
15min,AgWx,drainfrm,410,09FEB2018:04:15:00,47.2,12.51,49.7,50.2,49.8,51.2,48.5,45,51,41,0.539,29.5,31.2,27.9,11.36,8.6,159,9.7,14.4,0.00045,0.00056,39.2,37.9,64,0,100,51.1,14.64,0.00,0.00
15min,AgWx,drainfrm,410,09FEB2018:04:30:00,47.4,12.51,48.9,49.4,49.7,50.2,49.2,45,48,43,0.555,29.5,30.6,28.5,6.73,6.6,134,38,10.8,0.00038,0.00049,39.2,37.9,64,0,100,51.0,14.64,0.00,0.00
15min,AgWx,drainfrm,410,09FEB2018:04:45:00,47.4,12.51,48.9,49.3,49.1,49.8,48.4,47,49,45,0.544,29.8,30.5,28.8,11.18,8.0,163,13,12.5,0.00041,0.00051,39.3,37.8,64,0,100,50.5,14.64,0.00,0.00
15min,AgWx,drainfrm,410,09FEB2018:05:00:00,47.5,12.51,49.8,50.4,49.6,50.6,48.3,45,50,41,0.542,29.3,31.0,27.9,5.985,7.8,163,12,12.5,0.00042,0.00053,39.3,37.9,64,0,100,50.7,14.64,0.00,0.00
15min,AgWx,drainfrm,410,09FEB2018:05:15:00,47.7,12.5,48.1,48.3,49.6,52.7,47.7,45,51,37,0.549,29.3,30.9,26.7,10.83,8.2,159,15,14.7,0.00044,0.00055,39.3,37.6,64,0,100,51.0,14.64,0.00,0.00
15min,AgWx,drainfrm,410,09FEB2018:05:30:00,47.9,12.5,49.0,49.7,50.6,53.0,48.6,42,47,35,0.528,28.3,29.7,26.2,4.165,6.6,156,22,13.4,0.00042,0.00054,39.4,38.7,64,0,100,51.6,14.64,0.00,0.00
15min,AgWx,drainfrm,410,09FEB2018:05:45:00,47.7,12.5,46.5,46.8,49.4,51.6,46.2,45,55,37,0.543,28.6,31.3,26.2,5.174,3.2,166,79,8.3,0.00020,0.00029,39.3,37.0,64,0,100,50.6,14.64,0.00,0.00
15min,AgWx,drainfrm,410,09FEB2018:06:00:00,46.8,12.5,43.1,43.7,45.3,47.7,43.6,57,63,49,0.591,30.7,32.1,28.9,4.231,4.4,12,60,8.7,0.00018,0.00025,39.3,37.6,64,0,100,46.9,14.64,0.00,0.00
15min,AgWx,drainfrm,410,09FEB2018:06:15:00,45.7,12.49,43.1,44.1,43.5,44.4,42.6,62,66,57,0.588,31.3,32.5,30.0,5.524,4.6,16,32,6.4,0.00014,0.00020,39.4,37.9,64,0,100,45.4,14.64,0.00,0.00
15min,AgWx,drainfrm,410,09FEB2018:06:30:00,44.5,12.49,40.9,41.6,42.3,43.9,41.4,66,69,61,0.606,31.8,32.4,30.8,2.916,3.0,1.8,53,8.5,0.00006,0.00010,39.3,37.8,64,0,100,44.6,14.64,0.00,0.00
15min,AgWx,drainfrm,410,09FEB2018:06:45:00,43.4,12.48,40.6,41.4,41.7,42.7,40.9,67,71,62,0.603,31.6,32.5,30.3,6.007,5.1,20,45,7.6,0.00012,0.00017,39.2,38.3,64,0,100,43.7,14.65,0.00,0.00
15min,AgWx,drainfrm,410,09FEB2018:07:00:00,42.6,12.48,40.4,40.8,41.8,43.8,40.5,67,72,59,0.590,31.5,32.2,30.0,2.696,3.8,51,69,7.8,0.00009,0.00013,39.2,38.3,64,0,100,43.5,14.64,0.00,0.00
15min,AgWx,drainfrm,410,09FEB2018:07:15:00,41.8,12.47,41.8,42.7,43.1,45.1,41.0,60,68,55,0.553,30.1,31.2,28.9,5.787,2.8,162,91,7.5,0.00007,0.00012,39.2,37.6,64,0,100,43.5,14.64,0.00,0.00
15min,AgWx,drainfrm,410,09FEB2018:07:30:00,41.2,12.47,42.9,43.5,42.9,45.1,40.2,59,70,52,0.552,29.5,31.0,28.5,3.003,2.6,221,73,5.5,0.00007,0.00012,39.3,38.1,64,1,100,43.1,14.65,0.00,0.00
15min,AgWx,drainfrm,410,09FEB2018:07:45:00,40.6,12.47,43.2,44.0,42.4,44.1,41.7,60,63,55,0.541,29.4,30.2,28.7,4.209,2.6,270,45,6.5,0.00008,0.00013,39.2,38.3,64,10,100,43.5,14.64,0.00,0.00